Tracking 25405 objects as of 26-Jan-2022
HD Live streaming from Space Station
objects crossing your sky now

STARLINK-1302

Track STARLINK-1302 now!
10-day predictions
STARLINK-1302 is classified as:


NORAD ID: 45375
Int'l Code: 2020-019R
Perigee: 553.3 km
Apogee: 555.4 km
Inclination: 53.1 °
Period: 95.6 minutes
Semi major axis: 6925 km
RCS: Unknown
Launch date: March 18, 2020
Source: United States (US)
Launch site: AIR FORCE EASTERN TEST RANGE (AFETR)
aabbcc
Your satellite tracking list
Your tracking list is empty




NASA's NSSDC Master Catalog

Two Line Element Set (TLE):
1 45375U 20019R   22026.55493322 -.00000194  00000-0  58950-5 0  9998
2 45375  53.0546  74.4662 0001479  84.1508 275.9649 15.06403736103174
Source of the keplerian elements: AFSPC